TimeCST,TemperatureF,Dew PointF,Humidity,Sea Level PressureIn,VisibilityMPH,Wind Direction,Wind SpeedMPH,Gust SpeedMPH,PrecipitationIn,Events,Conditions,WindDirDegrees,DateUTC
12:55 AM,63.9,63.5,99,29.96,10.0,South,5.8,-,N/A,,Partly Cloudy,190,2012-12-10 06:55:00
1:55 AM,63.7,63.3,99,29.95,10.0,South,5.8,-,N/A,,Clear,180,2012-12-10 07:55:00
2:55 AM,64.6,64.4,99,29.93,10.0,South,6.9,-,N/A,,Clear,180,2012-12-10 08:55:00
3:55 AM,63.7,63.5,99,29.92,10.0,South,6.9,-,N/A,,Clear,190,2012-12-10 09:55:00
4:55 AM,64.2,64.0,99,29.90,10.0,South,5.8,-,N/A,,Partly Cloudy,180,2012-12-10 10:55:00
5:54 AM,64.4,64.4,100,29.88,10.0,South,5.8,-,N/A,,Mostly Cloudy,170,2012-12-10 11:54:00
5:55 AM,64.9,64.6,99,29.88,10.0,South,5.8,-,N/A,,Scattered Clouds,170,2012-12-10 11:55:00
6:00 AM,66.2,64.4,94,29.88,10.0,SSE,5.8,-,N/A,,Mostly Cloudy,160,2012-12-10 12:00:00
6:55 AM,66.6,66.2,99,29.88,10.0,South,6.9,-,N/A,,Partly Cloudy,170,2012-12-10 12:55:00
7:30 AM,68.0,68.0,100,29.88,10.0,South,5.8,-,N/A,,Mostly Cloudy,180,2012-12-10 13:30:00
7:33 AM,68.0,68.0,100,29.88,10.0,South,6.9,-,N/A,,Scattered Clouds,180,2012-12-10 13:33:00
7:37 AM,68.0,68.0,100,29.88,10.0,South,6.9,-,N/A,,Mostly Cloudy,180,2012-12-10 13:37:00
7:46 AM,69.8,68.0,94,29.88,10.0,South,8.1,-,N/A,,Scattered Clouds,190,2012-12-10 13:46:00
7:55 AM,70.2,68.0,93,29.88,10.0,South,10.4,-,N/A,,Scattered Clouds,190,2012-12-10 13:55:00
8:28 AM,71.6,68.0,88,29.88,10.0,SSW,10.4,-,N/A,,Mostly Cloudy,200,2012-12-10 14:28:00
8:33 AM,71.6,68.0,88,29.88,10.0,SSW,10.4,-,N/A,,Mostly Cloudy,210,2012-12-10 14:33:00
8:55 AM,71.4,67.1,86,29.89,10.0,SSW,12.7,-,N/A,,Overcast,200,2012-12-10 14:55:00
9:13 AM,71.6,66.2,83,29.88,10.0,SSW,16.1,-,N/A,,Mostly Cloudy,200,2012-12-10 15:13:00
9:55 AM,73.0,66.0,79,29.90,10.0,SSW,17.3,23.0,N/A,,Mostly Cloudy,200,2012-12-10 15:55:00
10:55 AM,75.6,65.7,71,29.87,10.0,SSW,17.3,-,N/A,,Mostly Cloudy,200,2012-12-10 16:55:00
11:55 AM,76.5,66.2,70,29.85,10.0,South,19.6,23.0,N/A,,Mostly Cloudy,190,2012-12-10 17:55:00
12:55 PM,76.5,66.2,70,29.82,10.0,SSW,23.0,29.9,N/A,,Mostly Cloudy,200,2012-12-10 18:55:00
1:55 PM,75.0,67.3,77,29.80,10.0,SSW,17.3,23.0,N/A,,Mostly Cloudy,210,2012-12-10 19:55:00
2:55 PM,75.4,64.2,68,29.79,10.0,WSW,15.0,24.2,N/A,,Mostly Cloudy,240,2012-12-10 20:55:00
3:38 PM,75.2,64.4,69,29.79,10.0,WSW,12.7,-,N/A,,Mostly Cloudy,250,2012-12-10 21:38:00
3:55 PM,73.8,65.1,74,29.79,10.0,WSW,12.7,20.7,N/A,,Mostly Cloudy,240,2012-12-10 21:55:00
4:55 PM,71.6,65.3,80,29.78,10.0,SW,10.4,-,N/A,,Mostly Cloudy,230,2012-12-10 22:55:00
5:55 PM,69.6,64.2,83,29.81,10.0,WSW,9.2,-,N/A,,Mostly Cloudy,240,2012-12-10 23:55:00
6:55 PM,67.8,61.2,79,29.83,10.0,West,4.6,-,N/A,,Scattered Clouds,270,2012-12-11 00:55:00
7:55 PM,66.0,61.2,84,29.84,10.0,WNW,6.9,-,N/A,,Mostly Cloudy,300,2012-12-11 01:55:00
8:22 PM,66.2,62.6,88,29.84,10.0,NW,6.9,-,N/A,,Mostly Cloudy,310,2012-12-11 02:22:00
8:30 PM,66.2,62.6,88,29.85,10.0,NW,5.8,-,N/A,,Mostly Cloudy,310,2012-12-11 02:30:00
8:55 PM,65.7,61.9,88,29.86,10.0,NNW,4.6,-,N/A,,Mostly Cloudy,330,2012-12-11 02:55:00
9:32 PM,64.4,60.8,88,29.85,10.0,NNW,2.3,-,N/A,,Mostly Cloudy,340,2012-12-11 03:32:00
9:55 PM,63.7,61.9,94,29.87,10.0,WNW,3.5,-,N/A,,Mostly Cloudy,300,2012-12-11 03:55:00
10:12 PM,64.4,62.6,94,29.86,10.0,WNW,4.6,-,N/A,,Mostly Cloudy,290,2012-12-11 04:12:00
10:19 PM,64.4,60.8,88,29.87,6.0,NW,15.0,19.6,N/A,Rain,Light Rain,310,2012-12-11 04:19:00
10:39 PM,60.8,59.0,94,29.88,3.0,NW,9.2,-,N/A,,Light Drizzle,320,2012-12-11 04:39:00
10:55 PM,59.9,59.5,99,29.90,3.0,NNW,12.7,-,N/A,,Light Drizzle,330,2012-12-11 04:55:00
10:59 PM,59.9,59.5,99,29.90,3.0,NNW,12.7,-,0.00,,Light Drizzle,330,2012-12-11 04:59:00
11:10 PM,59.0,57.2,94,29.90,10.0,NW,11.5,-,N/A,,Overcast,320,2012-12-11 05:10:00
11:28 PM,57.2,55.4,94,29.89,10.0,NNW,11.5,-,N/A,,Overcast,330,2012-12-11 05:28:00
11:35 PM,57.2,55.4,94,29.89,10.0,NNW,11.5,-,N/A,,Overcast,330,2012-12-11 05:35:00
11:55 PM,56.1,54.9,96,29.90,10.0,NNW,11.5,-,0.00,,Overcast,340,2012-12-11 05:55:00